Location: Acton
(51.4942°N, 0.2232°W)
Time: 22:32:05
(UTC+00:00)

USA 238 - Pass Details

Date: 18 September 2020
Orbit: 1006 x 1206 km, 63.4° (Epoch: 15 October)

Event Time Altitude Azimuth Distance (km) Brightness Sun altitude
Rises 19:30:21 0° 314° (NW) 3,918 8.0 -13.4°
Reaches altitude 10° 19:32:58 10° 315° (NW) 2,987 7.1 -13.8°
Maximum altitude 19:40:09 84° 44° (NE) 1,164 3.8 -14.9°
Enters shadow 19:45:44 20° 133° (SE) 2,453 5.0 -15.7°
